Location: ??????
(56.0120°N, 39.1740°E)
Time: 11:23:55
(UTC+00:00)

SL-08 R/B - Pass Details

Date: 14 April 2026
Orbit: 944 x 1006 km, 83.0° (Epoch: 10 May)

Event Time Altitude Azimuth Distance (km) Brightness Sun altitude
Exits shadow 21:29:44 55° 173° (S) 1,137 4.4 -24.3°
Maximum altitude 21:31:10 80° 99° (E) 979 4.4 -24.3°
Drops below altitude 10° 21:37:23 10° 13° (NNE) 2,721 7.9 -24.3°
Sets 21:39:55 0° 13° (NNE) 3,681 8.9 -24.2°
